Home   Weather   Tashkent   Past weeks
Flag for Uzbekistan

Past Weather in Tashkent, Uzbekistan — Yesterday and Last 2 Weeks

Now
82 °F

Sunny.


Feels Like: 82 °F
Forecast: 104 / 72 °F
Wind: 5 mph from Northeast

Location: Tashkent

Current Time: Jul 22, 2019 at 7:12:27 am

Latest Report: Jul 22, 2019 at 6:00 am


Visibility: 10 mi

Pressure: 29.74 "Hg

Humidity: 42%

Dew Point: 57 °F

Location of TashkentLocation

Past Weather in Tashkent — Graph

°F

Tashkent Temperature Yesterday

Maximum temperature yesterday: 106 °F (at 1:30 pm)
Minimum temperature yesterday: 77 °F (at 3:00 am)
Average temperature yesterday: 92 °F

High & Low Weather Summary for the Past Weeks

 TemperatureHumidityPressure
High108 °F (Jul 14, 3:00 pm)51% (Jul 7, 11:30 pm)29.80 "Hg (Jul 7, 11:30 pm)
Low73 °F (Jul 15, 4:30 am)9% (Jul 14, 5:30 pm)29.50 "Hg (Jul 12, 3:30 pm)
Average92 °F27%29.61 "Hg
* Reported Jul 7 5:00 am — Jul 22 5:30 am, Tashkent. Weather by CustomWeather, © 2019

Note: Actual official high and low records may vary slightly from our data, if they occured in-between our weather recording intervals... More about our weather records

Advertising

Tashkent Weather History for the Previous 24 Hours

Scroll right to see more
 ConditionsComfort  
Time TempWeatherWind HumidityBarometerVisibility
5:30 am
Mon, Jul 22
84 °FSunny.5 mph37%29.71 "Hg10 mi
5:00 am86 °FClear.5 mph35%29.71 "Hg10 mi
4:30 am86 °FClear.7 mph35%29.71 "Hg10 mi
4:00 am86 °FPassing clouds.5 mph35%29.71 "HgN/A
3:30 am86 °FPassing clouds.5 mph35%29.71 "HgN/A
3:00 am86 °FPassing clouds.5 mph38%29.71 "HgN/A
2:30 am88 °FClear.5 mph35%29.68 "Hg10 mi
2:00 am88 °FClear.7 mph35%29.68 "Hg10 mi
1:30 am88 °FClear.2 mph38%29.71 "Hg10 mi
1:00 am90 °FClear.5 mph36%29.71 "Hg10 mi
12:30 am90 °FPassing clouds.5 mph36%29.71 "HgN/A
12:00 am88 °FPassing clouds.5 mph38%29.71 "HgN/A
11:30 pm
Sun, Jul 21
91 °FPassing clouds.7 mph32%29.71 "HgN/A
11:00 pm90 °FPassing clouds.2 mph36%29.71 "HgN/A
10:30 pm90 °FPassing clouds.7 mph38%29.71 "HgN/A
10:00 pm91 °FPassing clouds.9 mph36%29.71 "HgN/A
9:30 pm91 °FPassing clouds.5 mph32%29.71 "HgN/A
9:00 pm93 °FPassing clouds.2 mph30%29.71 "HgN/A
8:30 pm95 °FPassing clouds.5 mph28%29.71 "HgN/A
8:00 pm97 °FPassing clouds.9 mph27%29.71 "HgN/A
7:30 pm97 °FSunny.7 mph27%29.71 "Hg10 mi
7:00 pm99 °FSunny.7 mph22%29.71 "Hg10 mi
6:30 pm100 °FSunny.9 mph21%29.71 "Hg10 mi
6:00 pm102 °FSunny.9 mph20%29.71 "Hg10 mi
5:30 pm104 °FSunny.12 mph17%29.71 "Hg10 mi
5:00 pm106 °FPassing clouds.12 mph15%29.71 "HgN/A
4:30 pm106 °FPassing clouds.9 mph14%29.71 "HgN/A
4:00 pm106 °FPassing clouds.7 mph14%29.71 "HgN/A
3:30 pm106 °FPassing clouds.7 mph14%29.74 "HgN/A
3:00 pm106 °FPassing clouds.7 mph13%29.74 "HgN/A
2:30 pm106 °FPassing clouds.9 mph14%29.74 "HgN/A
2:00 pm106 °FSunny.7 mph14%29.74 "Hg10 mi
1:30 pm106 °FPassing clouds.7 mph13%29.77 "HgN/A
1:00 pm104 °FClear.9 mph16%29.77 "Hg4 mi
12:30 pm102 °FClear.7 mph18%29.77 "Hg4 mi
12:00 pm102 °FClear.5 mph18%29.80 "Hg4 mi
11:30 am99 °FClear.5 mph21%29.80 "Hg4 mi
11:00 am99 °FClear.5 mph21%29.80 "Hg4 mi
10:30 am97 °FClear.5 mph22%29.80 "Hg4 mi
10:00 am95 °FClear.5 mph23%29.80 "Hg4 mi
9:30 am93 °FClear.7 mph26%29.80 "Hg4 mi
9:00 am93 °FClear.2 mph26%29.80 "Hg4 mi
8:30 am91 °FSunny.2 mph28%29.80 "Hg10 mi
8:00 am88 °FSunny.7 mph31%29.80 "Hg10 mi
7:30 am86 °FSunny.9 mph31%29.77 "Hg10 mi
7:00 am82 °FSunny.9 mph35%29.77 "Hg10 mi
Weather by CustomWeather, © 2019

See weather overview